Location: Miles
(41.4492°N, 81.6087°W)
Time: 19:40:26
(UTC+00:00)

Transit 2A - Pass Details

Date: 17 September 2024
Orbit: 590 x 960 km, 66.7° (Epoch: 05 October)

Event Time Altitude Azimuth Distance (km) Brightness Sun altitude
Rises 23:59:22 0° 222° (SW) 3,400 9.9 -5.8°
Reaches altitude 10° 00:01:47 10° 226° (SW) 2,517 9.2 -6.2°
Maximum altitude 00:07:36 57° 305° (NW) 1,076 7.2 -7.3°
Drops below altitude 10° 00:13:50 10° 23° (NNE) 2,688 8.7 -8.4°
Sets 00:16:30 0° 28° (NNE) 3,649 9.3 -8.9°
